TimeEST,TemperatureF,Dew PointF,Humidity,Sea Level PressureIn,VisibilityMPH,Wind Direction,Wind SpeedMPH,Gust SpeedMPH,PrecipitationIn,Events,Conditions,WindDirDegrees,DateUTC
12:15 AM,60.8,59.0,94,29.99,8.0,SSE,3.5,-,N/A,,Mostly Cloudy,150,2012-12-10 05:15:00
12:35 AM,59.0,57.2,94,29.99,2.5,Variable,1.2,-,N/A,,Mostly Cloudy,0,2012-12-10 05:35:00
12:39 AM,57.2,57.2,100,29.99,1.8,Variable,1.2,-,N/A,,Mostly Cloudy,0,2012-12-10 05:39:00
12:42 AM,59.0,57.2,94,29.99,1.5,Variable,1.2,-,N/A,,Mostly Cloudy,0,2012-12-10 05:42:00
12:45 AM,59.0,57.2,94,29.98,1.8,Variable,1.2,-,N/A,,Mostly Cloudy,0,2012-12-10 05:45:00
12:46 AM,59.0,57.2,94,29.98,2.0,Variable,1.2,-,N/A,,Mostly Cloudy,0,2012-12-10 05:46:00
12:47 AM,57.2,57.2,100,29.98,1.8,Variable,1.2,-,N/A,,Mostly Cloudy,0,2012-12-10 05:47:00
12:48 AM,57.2,57.2,100,29.98,1.5,Variable,1.2,-,N/A,,Mostly Cloudy,0,2012-12-10 05:48:00
12:50 AM,57.2,57.2,100,29.98,1.2,Variable,1.2,-,N/A,,Mostly Cloudy,0,2012-12-10 05:50:00
12:52 AM,57.2,57.2,100,29.98,1.0,ENE,1.2,-,N/A,Fog,Fog,60,2012-12-10 05:52:00
12:54 AM,57.2,55.4,94,29.98,0.8,ENE,1.2,-,N/A,Fog,Fog,70,2012-12-10 05:54:00
12:55 AM,56.8,55.8,96,29.98,0.8,Variable,1.2,-,N/A,Fog,Fog,0,2012-12-10 05:55:00
12:56 AM,57.2,55.4,94,29.98,0.5,Variable,1.2,-,N/A,Fog,Fog,0,2012-12-10 05:56:00
1:00 AM,57.2,57.2,100,29.98,0.5,Calm,Calm,-,N/A,Fog,Fog,0,2012-12-10 06:00:00
1:13 AM,59.0,59.0,100,29.97,1.0,SSE,2.3,-,N/A,Fog,Patches of Fog,150,2012-12-10 06:13:00
1:14 AM,59.0,59.0,100,29.97,1.2,SSE,2.3,-,N/A,Fog,Patches of Fog,150,2012-12-10 06:14:00
1:15 AM,59.0,59.0,100,29.97,1.5,SSE,2.3,-,N/A,Fog,Patches of Fog,150,2012-12-10 06:15:00
1:17 AM,59.0,59.0,100,29.97,1.8,SSE,2.3,-,N/A,Fog,Patches of Fog,150,2012-12-10 06:17:00
1:18 AM,59.0,59.0,100,29.97,2.0,Variable,2.3,-,N/A,Fog,Patches of Fog,0,2012-12-10 06:18:00
1:19 AM,59.0,57.2,94,29.97,1.8,Variable,1.2,-,N/A,Fog,Patches of Fog,0,2012-12-10 06:19:00
1:20 AM,59.0,57.2,94,29.97,1.5,Variable,2.3,-,N/A,Fog,Patches of Fog,0,2012-12-10 06:20:00
1:21 AM,59.0,57.2,94,29.97,1.8,Variable,1.2,-,N/A,Fog,Patches of Fog,0,2012-12-10 06:21:00
1:22 AM,59.0,57.2,94,29.97,2.0,Variable,1.2,-,N/A,Fog,Patches of Fog,0,2012-12-10 06:22:00
1:23 AM,59.0,57.2,94,29.97,1.8,Variable,1.2,-,N/A,Fog,Patches of Fog,0,2012-12-10 06:23:00
1:29 AM,59.0,59.0,100,29.97,2.0,Variable,1.2,-,N/A,,Mostly Cloudy,0,2012-12-10 06:29:00
1:31 AM,59.0,57.2,94,29.97,1.8,WSW,2.3,-,N/A,,Mostly Cloudy,240,2012-12-10 06:31:00
1:34 AM,59.0,57.2,94,29.96,2.0,SW,1.2,-,N/A,,Mostly Cloudy,230,2012-12-10 06:34:00
1:35 AM,59.0,59.0,100,29.96,1.8,SW,1.2,-,N/A,,Mostly Cloudy,220,2012-12-10 06:35:00
1:36 AM,59.0,59.0,100,29.96,2.0,SSW,2.3,-,N/A,,Mostly Cloudy,210,2012-12-10 06:36:00
1:39 AM,59.0,59.0,100,29.96,2.5,SSW,2.3,-,N/A,,Mostly Cloudy,210,2012-12-10 06:39:00
1:43 AM,59.0,59.0,100,29.96,3.0,SSW,3.5,-,N/A,,Mostly Cloudy,210,2012-12-10 06:43:00
1:55 AM,61.5,61.0,98,29.96,4.0,SSW,3.5,-,N/A,,Overcast,210,2012-12-10 06:55:00
2:05 AM,60.8,59.0,94,29.96,2.5,South,2.3,-,N/A,,Overcast,190,2012-12-10 07:05:00
2:10 AM,60.8,60.8,100,29.96,3.0,South,2.3,-,N/A,,Overcast,180,2012-12-10 07:10:00
2:28 AM,60.8,60.8,100,29.95,2.5,SSW,1.2,-,N/A,,Overcast,200,2012-12-10 07:28:00
2:51 AM,59.0,59.0,100,29.94,1.8,Variable,1.2,-,N/A,,Mostly Cloudy,0,2012-12-10 07:51:00
2:53 AM,60.8,59.0,94,29.94,1.5,Variable,1.2,-,N/A,,Mostly Cloudy,0,2012-12-10 07:53:00
2:55 AM,59.9,59.0,97,29.94,1.5,Variable,2.3,-,N/A,,Mostly Cloudy,0,2012-12-10 07:55:00
3:05 AM,60.8,59.0,94,29.94,1.2,SW,2.3,-,N/A,,Mist,230,2012-12-10 08:05:00
3:07 AM,60.8,60.8,100,29.94,1.0,SW,2.3,-,N/A,Fog,Fog,220,2012-12-10 08:07:00
3:10 AM,60.8,59.0,94,29.94,0.8,SSW,2.3,-,N/A,Fog,Fog,200,2012-12-10 08:10:00
3:55 AM,62.2,61.7,98,29.92,0.5,South,4.6,-,N/A,Fog,Fog,190,2012-12-10 08:55:00
4:55 AM,62.4,61.5,97,29.90,0.5,SSW,4.6,-,N/A,Fog,Fog,210,2012-12-10 09:55:00
5:55 AM,62.1,61.3,97,29.89,0.5,SSW,4.6,-,N/A,Fog,Fog,200,2012-12-10 10:55:00
5:59 AM,62.6,60.8,94,29.89,0.5,South,4.6,-,N/A,Fog-Rain,Light Rain,190,2012-12-10 10:59:00
6:18 AM,62.6,60.8,94,29.89,0.8,South,3.5,-,N/A,Fog,Fog,190,2012-12-10 11:18:00
6:27 AM,62.6,60.8,94,29.89,0.5,South,4.6,-,N/A,Fog-Rain,Light Rain Showers,190,2012-12-10 11:27:00
6:42 AM,62.6,60.8,94,29.88,0.5,SSW,4.6,-,N/A,Fog,Fog,200,2012-12-10 11:42:00
6:51 AM,62.6,60.8,94,29.88,1.0,South,4.6,-,N/A,Fog,Fog,180,2012-12-10 11:51:00
6:54 AM,62.6,60.8,94,29.88,1.0,South,4.6,-,N/A,Fog,Fog,190,2012-12-10 11:54:00
6:55 AM,62.2,61.5,97,29.88,1.0,South,4.6,-,N/A,Fog,Fog,190,2012-12-10 11:55:00
6:57 AM,62.6,60.8,94,29.88,1.2,SSW,4.6,-,N/A,Fog,Fog,210,2012-12-10 11:57:00
7:00 AM,62.6,60.8,94,29.88,1.5,SSW,5.8,-,N/A,,Mostly Cloudy,200,2012-12-10 12:00:00
7:03 AM,62.6,62.6,100,29.88,1.8,SSW,5.8,-,N/A,,Mostly Cloudy,200,2012-12-10 12:03:00
7:05 AM,62.6,60.8,94,29.88,1.0,SSW,5.8,-,N/A,,Mostly Cloudy,200,2012-12-10 12:05:00
7:06 AM,62.6,60.8,94,29.88,1.2,SSW,6.9,-,N/A,,Mostly Cloudy,200,2012-12-10 12:06:00
7:09 AM,62.6,62.6,100,29.88,1.0,SSW,6.9,-,N/A,,Mostly Cloudy,200,2012-12-10 12:09:00
7:12 AM,62.6,62.6,100,29.88,0.8,SSW,5.8,-,N/A,,Mostly Cloudy,210,2012-12-10 12:12:00
7:32 AM,62.6,62.6,100,29.88,1.0,SSW,5.8,-,N/A,,Mostly Cloudy,200,2012-12-10 12:32:00
7:53 AM,62.6,62.6,100,29.88,1.0,SSW,6.9,-,N/A,,Mostly Cloudy,210,2012-12-10 12:53:00
7:55 AM,62.6,61.9,97,29.88,1.0,SW,6.9,-,N/A,,Mostly Cloudy,220,2012-12-10 12:55:00
7:59 AM,62.6,62.6,100,29.89,1.2,SW,6.9,-,N/A,,Mostly Cloudy,220,2012-12-10 12:59:00
8:09 AM,62.6,62.6,100,29.89,1.5,SW,6.9,-,N/A,,Mostly Cloudy,220,2012-12-10 13:09:00
8:14 AM,62.6,62.6,100,29.89,1.8,SW,6.9,-,N/A,,Mostly Cloudy,230,2012-12-10 13:14:00
8:22 AM,62.6,62.6,100,29.89,2.0,SW,4.6,-,N/A,,Mostly Cloudy,230,2012-12-10 13:22:00
8:30 AM,62.6,62.6,100,29.88,2.5,SW,4.6,-,N/A,,Mostly Cloudy,220,2012-12-10 13:30:00
8:42 AM,62.6,62.6,100,29.88,3.0,SSW,4.6,-,N/A,,Mostly Cloudy,210,2012-12-10 13:42:00
8:55 AM,63.1,62.4,97,29.88,4.0,SSW,5.8,-,N/A,,Mostly Cloudy,200,2012-12-10 13:55:00
9:05 AM,62.6,62.6,100,29.87,4.0,SSW,4.6,-,N/A,,Mostly Cloudy,210,2012-12-10 14:05:00
9:14 AM,62.6,62.6,100,29.88,5.0,SSW,6.9,-,N/A,,Mostly Cloudy,210,2012-12-10 14:14:00
9:30 AM,62.6,62.6,100,29.88,7.0,SSW,8.1,-,N/A,,Mostly Cloudy,210,2012-12-10 14:30:00
9:55 AM,63.7,63.1,98,29.87,10.0,SSW,5.8,-,N/A,,Mostly Cloudy,200,2012-12-10 14:55:00
10:00 AM,64.4,62.6,94,29.87,10.0,SSW,10.4,-,N/A,,Mostly Cloudy,210,2012-12-10 15:00:00
10:29 AM,64.4,62.6,94,29.87,10.0,SW,13.8,21.9,N/A,,Mostly Cloudy,220,2012-12-10 15:29:00
10:45 AM,66.2,62.6,88,29.87,10.0,SW,10.4,-,N/A,,Mostly Cloudy,230,2012-12-10 15:45:00
10:55 AM,66.9,60.1,79,29.87,10.0,SW,12.7,19.6,N/A,,Mostly Cloudy,220,2012-12-10 15:55:00
11:19 AM,68.0,59.0,73,29.86,10.0,SW,15.0,19.6,N/A,,Mostly Cloudy,230,2012-12-10 16:19:00
11:34 AM,68.0,59.0,73,29.85,10.0,SW,12.7,-,N/A,,Scattered Clouds,230,2012-12-10 16:34:00
11:55 AM,68.5,57.6,68,29.83,10.0,SW,16.1,21.9,N/A,,Partly Cloudy,230,2012-12-10 16:55:00
12:55 PM,70.0,57.0,63,29.81,10.0,SSW,19.6,25.3,N/A,,Partly Cloudy,210,2012-12-10 17:55:00
1:25 PM,69.8,57.2,64,29.79,10.0,WSW,21.9,28.8,N/A,,Mostly Cloudy,240,2012-12-10 18:25:00
1:35 PM,69.8,57.2,64,29.79,10.0,WSW,16.1,26.5,N/A,,Mostly Cloudy,240,2012-12-10 18:35:00
1:55 PM,70.3,57.0,63,29.78,10.0,SSW,17.3,25.3,N/A,,Mostly Cloudy,210,2012-12-10 18:55:00
2:55 PM,70.7,57.2,62,29.76,10.0,SSW,13.8,23.0,N/A,,Mostly Cloudy,210,2012-12-10 19:55:00
3:55 PM,70.2,57.2,63,29.75,10.0,SSW,13.8,20.7,N/A,,Partly Cloudy,210,2012-12-10 20:55:00
4:55 PM,68.0,57.2,68,29.76,10.0,SSW,9.2,-,N/A,,Mostly Cloudy,200,2012-12-10 21:55:00
5:55 PM,65.7,57.0,74,29.75,10.0,South,4.6,-,N/A,,Mostly Cloudy,180,2012-12-10 22:55:00
6:44 PM,64.4,57.2,77,29.78,10.0,SW,3.5,-,N/A,Rain,Light Rain Showers,220,2012-12-10 23:44:00
6:55 PM,63.7,57.4,80,29.78,10.0,WSW,4.6,-,N/A,Rain,Light Rain Showers,250,2012-12-10 23:55:00
7:25 PM,62.6,59.0,88,29.79,10.0,South,6.9,-,N/A,,Mostly Cloudy,190,2012-12-11 00:25:00
7:55 PM,61.2,58.8,92,29.78,10.0,SSW,8.1,-,0.03,,Mostly Cloudy,200,2012-12-11 00:55:00
8:55 PM,61.7,58.8,90,29.75,10.0,SSW,8.1,-,N/A,,Mostly Cloudy,210,2012-12-11 01:55:00
9:55 PM,60.3,58.1,93,29.75,10.0,South,8.1,-,N/A,,Partly Cloudy,180,2012-12-11 02:55:00
10:55 PM,60.4,57.4,90,29.74,10.0,South,5.8,-,N/A,,Mostly Cloudy,180,2012-12-11 03:55:00
11:55 PM,60.8,57.7,90,29.76,10.0,SSW,6.9,-,N/A,,Scattered Clouds,210,2012-12-11 04:55:00